Starlink 32920

operational
NORAD ID: 62925 Int'l Des: 2025-027 Owner: SPXS Country: US Constellation: starlink
LEOCIRCULAR

Starlink 32920について

説明を読み込み中...

リアルタイム位置

3D地球を読み込み中...

次回通過

高度履歴

Altitude vs Time

uPlot chart will show altitude changes over time

軌道要素

1 62925U 25027U 25350.98093492 -.00003511 00000-0 -11807-3 0 9991
2 62925 42.9986 235.9102 0001231 262.2545 97.8167 15.27594969 48893
Epoch: Dec 16, 2025 • Age: 10 hours

現在のステータス

高度 486.4 km
速度 7.63 km/s
衛星直下点 40.68°N, 74.74°E
打ち上げ日 Feb 8, 2025
運用期間 0.8 years
タイプ internet

技術仕様

分類 Payload
質量 730.00 kg
乾燥質量 700.00 kg
総質量 730.00 kg
長さ 0.30 m
直径 4.10 m
スパン 29.00 m
形状 Box + pan
製造者 SPXS
バスタイプ Starlink V2M
フェーズステータス In Orbit
所有者/国 SPXS/US

大規模コンステレーション

Loading constellations...